CW7410 Weather Reports


Display with metric or nautical units.
time (UTC)temp
F
wind
direction
speed
MPH
gust
MPH
rain 1hr
in
rain 24hr
in
rain mn
in
humidity
%
barometer
mb
20260831043100 61 63 3.0 5.0 0.00 0.09 0.09 63 1016.5
20260831041604 61 84 2.0 4.0 0.00 0.09 0.09 63 1016.5
20260831040103 62 71 2.0 4.0 0.00 0.09 0.09 63 1016.5
20260831034602 62 82 3.0 5.0 0.00 0.09 0.09 62 1016.4
20260831033103 63 360 2.0 4.0 0.00 0.09 0.09 61 1016.2
20260831031556 64 360 1.0 4.0 0.00 0.09 0.09 60 1016.2
20260831030107 65 0 0.0 0.0 0.00 0.09 0.09 60 1016.1
20260831024611 67 0 0.0 0.0 0.00 0.09 0.09 58 1015.9
20260831023059 69 0 0.0 0.0 0.00 0.09 0.09 56 1015.8
20260831021600 71 0 0.0 0.0 0.00 0.09 0.09 54 1015.7
20260831020108 72 0 0.0 0.0 0.00 0.09 0.09 51 1015.5
20260831014615 74 0 0.0 3.0 0.00 0.09 0.09 51 1015.5
20260831013058 75 0 0.0 5.0 0.00 0.09 0.09 42 1015.6
20260831011609 77 288 3.0 7.0 0.00 0.09 0.09 43 1015.7
20260831004600 78 319 1.0 6.0 0.00 0.09 0.09 41 1015.8
20260831003059 78 0 4.0 9.0 0.00 0.09 0.09 36 1015.9
20260831001605 78 0 2.0 10.0 0.00 0.09 0.09 36 1015.9
20260830234557 78 299 3.0 10.0 0.00 0.09 0.09 39 1016.1
20260830233106 79 286 3.0 10.0 0.00 0.09 0.09 37 1016.0
20260830231609 80 277 3.0 10.0 0.00 0.09 0.09 39 1015.9
20260830230059 79 335 4.0 9.0 0.00 0.09 0.09 39 1016.1
20260830224611 79 0 2.0 8.0 0.00 0.09 0.09 39 1016.1
20260830223102 79 326 7.0 12.0 0.00 0.09 0.09 41 1016.2
20260830221609 79 288 10.0 14.0 0.00 0.09 0.09 40 1016.5
20260830220103 79 274 8.0 16.0 0.00 0.09 0.09 43 1016.6
20260830214605 78 269 6.0 16.0 0.00 0.09 0.09 46 1016.6
20260830213057 78 271 2.0 15.0 0.00 0.09 0.09 47 1016.7
20260830211600 78 296 8.0 14.0 0.00 0.09 0.09 48 1016.9
20260830204559 79 215 6.0 12.0 0.00 0.09 0.09 49 1017.1
20260830203057 78 352 5.0 15.0 0.00 0.09 0.09 49 1017.1
20260830201558 78 276 6.0 12.0 0.00 0.09 0.09 47 1017.2
20260830200059 78 310 4.0 10.0 0.00 0.09 0.09 50 1017.2
20260830194557 78 254 4.0 11.0 0.00 0.09 0.09 53 1017.2
20260830193102 77 259 5.0 12.0 0.00 0.09 0.09 55 1017.1
20260830191600 77 261 2.0 9.0 0.00 0.09 0.09 54 1017.2
20260830190057 77 277 1.0 8.0 0.00 0.09 0.09 53 1017.3
20260830184554 77 148 4.0 10.0 0.00 0.11 0.09 54 1017.3
20260830183101 77 245 4.0 11.0 0.00 0.11 0.09 55 1017.3
20260830181558 77 120 1.0 9.0 0.00 0.11 0.09 58 1017.3
20260830180104 77 152 1.0 9.0 0.00 0.11 0.09 58 1017.3
20260830174556 77 141 4.0 8.0 0.02 0.15 0.09 60 1017.6
20260830173105 75 136 3.0 8.0 0.02 0.15 0.09 60 1017.5
20260830171611 75 115 1.0 6.0 0.02 0.15 0.09 61 1017.5
20260830164604 74 194 0.0 4.0 0.00 0.20 0.07 69 1017.3
20260830163102 73 0 0.0 5.0 0.00 0.20 0.07 69 1017.3
20260830161611 72 210 1.0 5.0 0.00 0.20 0.07 70 1017.1
20260830154553 70 196 0.0 4.0 0.00 0.27 0.07 75 1016.8
20260830153101 68 0 1.0 7.0 0.00 0.27 0.07 78 1016.7
20260830151605 67 0 0.0 6.0 0.00 0.27 0.07 81 1016.5
20260830144602 66 175 1.0 5.0 0.00 0.29 0.07 84 1016.5
20260830143114 64 163 3.0 5.0 0.00 0.29 0.07 86 1016.3
20260830141605 62 360 3.0 6.0 0.00 0.29 0.07 87 1016.2
20260830140106 60 360 0.0 3.0 0.00 0.29 0.07 85 1016.4
20260830134555 59 0 0.0 4.0 0.00 0.41 0.07 85 1016.7
20260830133058 59 22 1.0 3.0 0.00 0.41 0.07 85 1016.5
20260830131557 59 80 2.0 4.0 0.00 0.41 0.07 84 1016.2
20260830130109 59 63 2.0 4.0 0.00 0.41 0.07 84 1016.4
20260830124559 60 42 3.0 4.0 0.00 0.43 0.07 85 1015.9
20260830123117 60 348 2.0 4.0 0.00 0.43 0.07 84 1016.1
20260830121605 60 277 0.0 5.0 0.00 0.43 0.07 85 1015.9
20260830120101 61 315 3.0 8.0 0.01 0.43 0.07 84 1015.9
20260830114607 61 319 2.0 10.0 0.01 0.46 0.07 84 1016.0
20260830113054 61 101 10.0 12.0 0.01 0.46 0.07 84 1015.4
20260830111600 61 131 3.0 7.0 0.01 0.46 0.07 84 1016.1
20260830110059 61 170 3.0 6.0 0.00 0.45 0.06 83 1016.1
20260830104556 61 181 4.0 12.0 0.00 0.45 0.06 83 1015.9
20260830103101 60 138 9.0 16.0 0.01 0.45 0.06 83 1014.9
20260830101602 61 138 12.0 17.0 0.01 0.45 0.06 82 1014.5
20260830100100 61 132 11.0 16.0 0.06 0.45 0.06 82 1014.4
20260830094555 61 85 10.0 14.0 0.06 0.45 0.06 80 1014.7
20260830093112 62 75 8.0 11.0 0.05 0.44 0.05 78 1015.3
20260830091559 63 161 7.0 17.0 0.05 0.44 0.05 76 1017.0
20260830090104 63 198 6.0 9.0 0.00 0.39 0.00 71 1016.7
20260830084605 63 113 7.0 12.0 0.00 0.40 0.00 69 1015.7
20260830083057 63 149 3.0 8.0 0.00 0.40 0.00 69 1015.3
20260830081609 63 139 2.0 5.0 0.00 0.40 0.00 68 1015.0
20260830080104 63 151 5.0 14.0 0.00 0.40 0.00 69 1015.3
20260830074613 63 127 7.0 11.0 0.00 0.40 0.00 69 1015.1
20260830073101 63 88 6.0 10.0 0.00 0.40 0.00 69 1015.2
20260830071559 63 94 1.0 5.0 0.00 0.40 0.00 68 1015.1
20260830070104 64 130 0.0 5.0 0.00 0.40 0.00 67 1015.2
20260830064604 65 122 0.0 3.0 0.00 0.40 0.00 67 1015.4
20260830063102 65 0 0.0 7.0 0.00 0.40 0.00 66 1015.8
20260830061554 66 232 4.0 11.0 0.00 0.40 0.00 64 1015.5
20260830060058 66 200 7.0 16.0 0.00 0.40 0.00 64 1015.3
20260830054557 65 176 8.0 14.0 0.00 0.47 0.40 66 1014.7
20260830053057 65 157 5.0 9.0 0.00 0.47 0.40 71 1015.0
20260830051556 65 146 3.0 8.0 0.00 0.47 0.40 71 1014.9
20260830050055 65 147 6.0 15.0 0.00 0.47 0.40 72 1015.0
20260830044558 64 124 9.0 15.0 0.00 0.52 0.40 75 1015.0